StationID,Date,MaxTemp,MinTemp,Precipitation,Snowfall,SnowDepth
"CA006151064","1951-04-01",44.06,32.00,56.00,0.00,
"CA006151064","1951-04-02",44.96,33.98,5.00,0.00,
"CA006151064","1951-04-03",44.06,28.94,0.00,0.00,
"CA006151064","1951-04-04",44.96,33.98,0.00,0.00,
"CA006151064","1951-04-05",59.00,33.98,0.00,0.00,
"CA006151064","1951-04-06",57.92,32.00,0.00,0.00,
"CA006151064","1951-04-07",57.02,30.92,0.00,0.00,
"CA006151064","1951-04-08",55.94,39.02,0.00,0.00,
"CA006151064","1951-04-09",53.96,39.02,284.00,0.00,
"CA006151064","1951-04-10",51.98,39.92,10.00,0.00,
"CA006151064","1951-04-11",60.08,39.02,25.00,0.00,
"CA006151064","1951-04-12",44.06,39.92,333.00,0.00,
"CA006151064","1951-04-13",46.94,33.98,18.00,0.00,
"CA006151064","1951-04-14",50.00,37.04,102.00,0.00,
"CA006151064","1951-04-15",48.02,33.98,3.00,0.00,
"CA006151064","1951-04-16",44.96,35.06,0.00,0.00,
"CA006151064","1951-04-17",42.08,33.98,0.00,0.00,
"CA006151064","1951-04-18",50.00,30.92,30.00,0.00,
"CA006151064","1951-04-19",44.06,37.04,0.00,0.00,
"CA006151064","1951-04-20",51.98,32.00,0.00,0.00,
"CA006151064","1951-04-21",53.06,26.96,0.00,0.00,
"CA006151064","1951-04-22",55.94,39.02,53.00,0.00,
"CA006151064","1951-04-23",57.02,32.00,0.00,0.00,
"CA006151064","1951-04-24",53.96,35.96,3.00,0.00,
"CA006151064","1951-04-25",53.06,41.00,48.00,0.00,
"CA006151064","1951-04-26",60.08,41.00,0.00,0.00,
"CA006151064","1951-04-27",62.06,32.00,0.00,0.00,
"CA006151064","1951-04-28",66.02,39.92,69.00,0.00,
"CA006151064","1951-04-29",73.04,50.00,69.00,0.00,
"CA006151064","1951-04-30",57.92,44.06,0.00,0.00,
"CA006151064","1951-05-01",64.04,37.94,0.00,0.00,
"CA006151064","1951-05-02",80.96,39.92,0.00,0.00,
"CA006151064","1951-05-03",55.04,42.98,0.00,0.00,
"CA006151064","1951-05-04",57.92,35.06,0.00,0.00,
"CA006151064","1951-05-05",66.02,33.98,0.00,0.00,
"CA006151064","1951-05-06",66.02,44.06,0.00,0.00,
"CA006151064","1951-05-07",64.04,42.98,0.00,0.00,
"CA006151064","1951-05-08",77.00,48.02,0.00,0.00,
"CA006151064","1951-05-09",77.00,51.98,0.00,0.00,
"CA006151064","1951-05-10",51.08,37.04,3.00,0.00,
"CA006151064","1951-05-11",53.96,39.92,41.00,0.00,
"CA006151064","1951-05-12",68.00,44.06,0.00,0.00,
"CA006151064","1951-05-13",55.94,35.96,0.00,0.00,
"CA006151064","1951-05-14",71.06,37.04,0.00,0.00,
"CA006151064","1951-05-15",86.00,39.02,0.00,0.00,
"CA006151064","1951-05-16",87.98,46.94,0.00,0.00,
"CA006151064","1951-05-17",60.98,44.06,18.00,0.00,
"CA006151064","1951-05-18",64.94,37.94,0.00,0.00,
"CA006151064","1951-05-19",66.02,30.92,0.00,0.00,
"CA006151064","1951-05-20",73.04,51.08,0.00,0.00,
"CA006151064","1951-05-21",84.02,69.98,0.00,0.00,
"CA006151064","1951-05-22",73.04,53.96,41.00,0.00,
"CA006151064","1951-05-23",66.02,51.08,0.00,0.00,
"CA006151064","1951-05-24",71.96,53.06,0.00,0.00,
"CA006151064","1951-05-25",84.02,50.00,0.00,0.00,
"CA006151064","1951-05-26",82.94,57.02,86.00,0.00,
"CA006151064","1951-05-27",66.02,53.96,18.00,0.00,
"CA006151064","1951-05-28",62.96,51.08,0.00,0.00,
"CA006151064","1951-05-29",64.94,50.00,0.00,0.00,
"CA006151064","1951-05-30",80.06,48.02,0.00,0.00,
"CA006151064","1951-05-31",86.00,55.04,0.00,0.00,
"CA006151064","1951-06-01",84.92,62.06,0.00,0.00,
"CA006151064","1951-06-02",66.02,57.92,246.00,0.00,
"CA006151064","1951-06-03",75.02,55.04,23.00,0.00,
"CA006151064","1951-06-04",68.00,60.08,0.00,0.00,
"CA006151064","1951-06-05",66.02,48.02,0.00,0.00,
"CA006151064","1951-06-06",75.02,42.08,0.00,0.00,
"CA006151064","1951-06-07",66.02,50.00,0.00,0.00,
"CA006151064","1951-06-08",68.00,48.92,0.00,0.00,
"CA006151064","1951-06-09",69.08,53.06,97.00,0.00,
"CA006151064","1951-06-10",73.04,57.92,0.00,0.00,
"CA006151064","1951-06-11",73.94,48.02,0.00,0.00,
"CA006151064","1951-06-12",71.96,51.98,36.00,0.00,
"CA006151064","1951-06-13",62.96,57.02,81.00,0.00,
"CA006151064","1951-06-14",73.94,55.04,0.00,0.00,
"CA006151064","1951-06-15",75.02,57.02,0.00,0.00,
"CA006151064","1951-06-16",86.00,51.98,0.00,0.00,
"CA006151064","1951-06-17",84.92,53.06,0.00,0.00,
"CA006151064","1951-06-18",86.00,57.02,0.00,0.00,
"CA006151064","1951-06-19",84.92,60.08,0.00,0.00,
"CA006151064","1951-06-20",82.04,66.02,218.00,0.00,
"CA006151064","1951-06-21",82.04,59.00,8.00,0.00,
"CA006151064","1951-06-22",66.02,53.06,183.00,0.00,
"CA006151064","1951-06-23",75.02,64.94,0.00,0.00,
"CA006151064","1951-06-24",84.02,66.02,0.00,0.00,
"CA006151064","1951-06-25",73.94,60.98,0.00,0.00,
"CA006151064","1951-06-26",71.96,53.06,0.00,0.00,
"CA006151064","1951-06-27",82.04,57.02,0.00,0.00,
"CA006151064","1951-06-28",75.92,66.02,71.00,0.00,
"CA006151064","1951-06-29",77.00,62.96,0.00,0.00,
"CA006151064","1951-06-30",80.06,55.94,127.00,0.00,
"CA006151064","1951-07-01",73.04,57.92,427.00,0.00,
"CA006151064","1951-07-02",78.08,53.96,13.00,0.00,
"CA006151064","1951-07-03",73.94,55.04,0.00,0.00,
"CA006151064","1951-07-04",80.96,62.06,318.00,0.00,
"CA006151064","1951-07-05",71.96,55.94,76.00,0.00,
"CA006151064","1951-07-06",87.98,57.02,0.00,0.00,
"CA006151064","1951-07-07",86.00,57.02,0.00,0.00,
"CA006151064","1951-07-08",84.92,66.02,84.00,0.00,
"CA006151064","1951-07-09",82.94,66.92,0.00,0.00,
"CA006151064","1951-07-10",87.98,64.04,0.00,0.00,
"CA006151064","1951-07-11",73.04,62.96,0.00,0.00,
"CA006151064","1951-07-12",66.92,60.98,168.00,0.00,
"CA006151064","1951-07-13",80.06,53.06,0.00,0.00,
"CA006151064","1951-07-14",96.08,62.06,0.00,0.00,
"CA006151064","1951-07-15",87.08,62.06,0.00,0.00,
"CA006151064","1951-07-16",87.98,66.02,89.00,0.00,
"CA006151064","1951-07-17",75.02,62.06,0.00,0.00,
"CA006151064","1951-07-18",77.00,60.98,180.00,0.00,
"CA006151064","1951-07-19",73.94,62.96,0.00,0.00,
"CA006151064","1951-07-20",75.02,51.08,0.00,0.00,
"CA006151064","1951-07-21",77.00,57.02,56.00,0.00,
"CA006151064","1951-07-22",84.02,68.00,0.00,0.00,
"CA006151064","1951-07-23",80.06,60.08,0.00,0.00,
"CA006151064","1951-07-24",78.98,51.08,0.00,0.00,
"CA006151064","1951-07-25",87.08,60.08,0.00,0.00,
"CA006151064","1951-07-26",89.06,62.06,0.00,0.00,
"CA006151064","1951-07-27",78.08,69.08,0.00,0.00,
"CA006151064","1951-07-28",78.08,64.04,0.00,0.00,
"CA006151064","1951-07-29",82.04,62.06,0.00,0.00,
"CA006151064","1951-07-30",91.94,71.96,3.00,0.00,
"CA006151064","1951-07-31",86.00,71.96,18.00,0.00,
"CA006151064","1951-08-01",84.92,60.08,18.00,0.00,
"CA006151064","1951-08-02",82.94,50.00,79.00,0.00,
"CA006151064","1951-08-03",82.94,60.98,0.00,0.00,
"CA006151064","1951-08-04",69.08,44.96,0.00,0.00,
"CA006151064","1951-08-05",71.06,41.00,0.00,0.00,
"CA006151064","1951-08-06",73.04,41.00,20.00,0.00,
"CA006151064","1951-08-07",73.04,55.04,0.00,0.00,
"CA006151064","1951-08-08",84.02,55.94,0.00,0.00,
"CA006151064","1951-08-09",86.00,57.02,0.00,0.00,
"CA006151064","1951-08-10",78.08,55.04,0.00,0.00,
"CA006151064","1951-08-11",77.00,51.98,0.00,0.00,
"CA006151064","1951-08-12",80.96,51.98,0.00,0.00,
"CA006151064","1951-08-13",80.96,55.04,0.00,0.00,
"CA006151064","1951-08-14",78.98,57.92,0.00,0.00,
"CA006151064","1951-08-15",73.94,60.08,38.00,0.00,
"CA006151064","1951-08-16",75.02,57.92,58.00,0.00,
"CA006151064","1951-08-17",71.96,51.98,0.00,0.00,
"CA006151064","1951-08-18",80.06,51.08,0.00,0.00,
"CA006151064","1951-08-19",80.06,51.08,5.00,0.00,
"CA006151064","1951-08-20",84.92,51.98,0.00,0.00,
"CA006151064","1951-08-21",78.98,62.06,127.00,0.00,
"CA006151064","1951-08-22",71.96,53.06,0.00,0.00,
"CA006151064","1951-08-23",71.96,44.06,0.00,0.00,
"CA006151064","1951-08-24",73.94,42.08,0.00,0.00,
"CA006151064","1951-08-25",80.06,46.04,0.00,0.00,
"CA006151064","1951-08-26",82.04,46.94,0.00,0.00,
"CA006151064","1951-08-27",73.94,55.94,0.00,0.00,
"CA006151064","1951-08-28",80.06,53.06,0.00,0.00,
"CA006151064","1951-08-29",91.04,57.02,0.00,0.00,
"CA006151064","1951-08-30",89.06,73.04,0.00,0.00,
"CA006151064","1951-08-31",89.96,66.92,320.00,0.00,
"CA006151064","1951-09-01",64.94,48.92,0.00,0.00,
"CA006151064","1951-09-02",,51.98,0.00,0.00,
"CA006151064","1951-09-03",75.92,,0.00,0.00,
"CA006151064","1951-09-04",75.92,48.02,0.00,0.00,
"CA006151064","1951-09-05",75.02,44.96,8.00,0.00,
"CA006151064","1951-09-06",73.94,53.06,84.00,0.00,
"CA006151064","1951-09-07",60.98,51.98,0.00,0.00,
"CA006151064","1951-09-08",78.98,37.04,0.00,0.00,
"CA006151064","1951-09-09",78.98,41.00,0.00,0.00,
"CA006151064","1951-09-10",84.02,55.94,51.00,0.00,
"CA006151064","1951-09-11",84.02,62.96,0.00,0.00,
"CA006151064","1951-09-12",86.00,60.98,0.00,0.00,
"CA006151064","1951-09-13",87.98,62.96,203.00,0.00,
"CA006151064","1951-09-14",77.00,53.06,0.00,0.00,
"CA006151064","1951-09-15",75.92,51.98,0.00,0.00,
"CA006151064","1951-09-16",69.08,46.94,0.00,0.00,
"CA006151064","1951-09-17",71.06,46.04,0.00,0.00,
"CA006151064","1951-09-18",71.96,46.04,0.00,0.00,
"CA006151064","1951-09-19",78.08,48.02,0.00,0.00,
"CA006151064","1951-09-20",80.96,51.98,0.00,0.00,
"CA006151064","1951-09-21",86.00,48.02,0.00,0.00,
"CA006151064","1951-09-22",78.98,50.00,61.00,0.00,
"CA006151064","1951-09-23",68.00,46.94,0.00,0.00,
"CA006151064","1951-09-24",71.96,46.94,20.00,0.00,
"CA006151064","1951-09-25",66.02,53.96,0.00,0.00,
"CA006151064","1951-09-26",71.06,37.94,0.00,0.00,
"CA006151064","1951-09-27",66.02,42.98,0.00,0.00,
"CA006151064","1951-09-28",55.04,41.00,0.00,0.00,
"CA006151064","1951-09-29",57.92,37.04,0.00,0.00,
"CA006151064","1951-09-30",53.06,39.02,0.00,0.00,
"CA006151064","1951-10-01",57.02,48.92,18.00,0.00,
"CA006151064","1951-10-02",71.96,44.06,0.00,0.00,
"CA006151064","1951-10-03",75.02,53.06,0.00,0.00,
"CA006151064","1951-10-04",84.02,64.94,0.00,0.00,
"CA006151064","1951-10-05",87.08,55.94,0.00,0.00,
"CA006151064","1951-10-06",84.92,53.96,185.00,0.00,
"CA006151064","1951-10-07",51.08,46.04,97.00,0.00,
"CA006151064","1951-10-08",55.04,42.98,0.00,0.00,
"CA006151064","1951-10-09",53.06,42.08,0.00,0.00,
"CA006151064","1951-10-10",55.04,37.94,0.00,0.00,
"CA006151064","1951-10-11",53.96,35.96,0.00,0.00,
"CA006151064","1951-10-12",55.94,44.06,0.00,0.00,
"CA006151064","1951-10-13",59.00,33.98,0.00,0.00,
"CA006151064","1951-10-14",66.02,48.02,0.00,0.00,
"CA006151064","1951-10-15",71.96,42.98,0.00,0.00,
"CA006151064","1951-10-16",69.98,48.92,0.00,0.00,
"CA006151064","1951-10-17",62.96,55.94,0.00,0.00,
"CA006151064","1951-10-18",69.98,35.06,0.00,0.00,
"CA006151064","1951-10-19",66.02,33.08,0.00,0.00,
"CA006151064","1951-10-20",55.04,30.92,0.00,0.00,
"CA006151064","1951-10-21",59.00,37.04,0.00,0.00,
"CA006151064","1951-10-22",68.00,42.08,74.00,0.00,
"CA006151064","1951-10-23",57.92,51.98,0.00,0.00,
"CA006151064","1951-10-24",59.00,51.98,175.00,0.00,
"CA006151064","1951-10-25",59.00,44.96,18.00,0.00,
"CA006151064","1951-10-26",62.96,39.92,10.00,0.00,
"CA006151064","1951-10-27",46.94,42.08,0.00,0.00,
"CA006151064","1951-10-28",44.06,28.94,0.00,0.00,
"CA006151064","1951-10-29",50.00,35.96,0.00,0.00,
"CA006151064","1951-10-30",57.92,37.94,3.00,0.00,
"CA006151064","1951-10-31",44.96,39.92,0.00,0.00,
"CA006151064","1951-11-01",41.00,33.08,,,
"CA006151064","1951-11-02",39.92,30.92,,,
"CA006151064","1951-11-03",32.00,24.08,,,
"CA006151064","1951-11-04",30.02,19.04,,,
"CA006151064","1951-11-05",28.04,15.08,,,
"CA006151064","1951-11-06",35.96,12.92,,,
"CA006151064","1951-11-07",37.94,30.02,272.00,0.00,
"CA006151064","1951-11-08",44.96,30.92,,,
"CA006151064","1951-11-09",50.00,32.00,,,
"CA006151064","1951-11-10",,33.08,,,
"CA006151064","1951-11-11",48.92,32.00,,,
"CA006151064","1951-11-12",,33.08,,,
"CA006151064","1951-11-13",,30.92,15.00,0.00,
"CA006151064","1951-11-14",60.98,46.94,,,
"CA006151064","1951-11-15",55.94,26.06,,,
"CA006151064","1951-11-16",50.00,32.00,23.00,0.00,
"CA006151064","1951-11-17",35.96,30.92,,,
"CA006151064","1951-11-18",35.06,28.04,,,
"CA006151064","1951-11-19",30.92,23.00,,,
"CA006151064","1951-11-20",30.92,17.96,,,
"CA006151064","1951-11-21",39.92,15.08,,,
"CA006151064","1951-11-22",48.92,42.08,,,
"CA006151064","1951-11-23",48.92,39.02,,,
"CA006151064","1951-11-24",39.92,28.94,,,
"CA006151064","1951-11-25",35.96,21.02,,,
"CA006151064","1951-11-26",37.94,30.92,,,
"CA006151064","1951-11-27",30.92,8.96,,,
"CA006151064","1951-11-28",37.04,10.04,,,
"CA006151064","1951-11-29",42.08,8.96,,,
"CA006151064","1951-11-30",53.06,37.04,,,
"CA006151064","1951-12-01",48.92,8.96,,,
"CA006151064","1951-12-02",50.00,32.00,,,
"CA006151064","1951-12-03",51.08,32.00,,,
"CA006151064","1951-12-04",55.04,30.02,46.00,0.00,
"CA006151064","1951-12-05",48.02,28.04,28.00,0.00,
"CA006151064","1951-12-06",55.94,33.98,13.00,0.00,
"CA006151064","1951-12-07",62.06,41.00,,,
"CA006151064","1951-12-08",44.96,37.94,,,
"CA006151064","1951-12-09",42.08,8.96,25.00,0.00,
"CA006151064","1951-12-10",35.96,,25.00,0.00,
"CA006151064","1951-12-11",35.06,26.06,13.00,0.00,
"CA006151064","1951-12-12",24.98,19.94,,,
"CA006151064","1951-12-13",24.08,10.04,,,
"CA006151064","1951-12-14",24.98,8.96,,,
"CA006151064","1951-12-15",21.02,6.98,,,
"CA006151064","1951-12-16",10.04,1.94,,,
"CA006151064","1951-12-17",26.06,8.06,,,
"CA006151064","1951-12-18",28.94,,,,
"CA006151064","1951-12-19",,-4.00,,,
"CA006151064","1951-12-20",33.98,-2.02,,,
"CA006151064","1951-12-25",28.04,,,,
"CA006151064","1951-12-26",30.02,5.00,,,
"CA006151064","1951-12-28",35.06,6.98,,,
"CA006151064","1951-12-30",39.02,19.94,,,
"CA006151064","1951-12-31",48.92,19.94,,,
"CA006151064","1952-01-01",44.06,,,,
"CA006151064","1952-01-02",30.02,,,,
"CA006151064","1952-01-03",28.94,,,,
"CA006151064","1952-01-04",35.06,14.00,,,
"CA006151064","1952-01-05",35.96,26.96,,,
"CA006151064","1952-01-06",30.02,,,,
"CA006151064","1952-01-07",30.02,10.04,,,
"CA006151064","1952-01-08",28.94,15.98,,,
"CA006151064","1952-01-09",35.06,19.94,,,
"CA006151064","1952-01-10",37.04,8.96,,,
"CA006151064","1952-01-11",35.06,5.00,,,
"CA006151064","1952-01-12",37.94,24.08,,,
"CA006151064","1952-01-13",37.04,28.04,,,
"CA006151064","1952-01-14",48.02,32.00,427.00,0.00,
"CA006151064","1952-01-15",48.02,35.06,,,
"CA006151064","1952-01-16",33.98,32.00,,,
"CA006151064","1952-01-17",51.98,26.96,18.00,0.00,
"CA006151064","1952-01-18",32.00,28.94,5.00,0.00,
"CA006151064","1952-01-19",42.98,19.94,168.00,13.00,
"CA006151064","1952-01-20",39.02,30.92,,,
"CA006151064","1952-01-21",21.02,14.00,,,
"CA006151064","1952-01-22",37.04,6.08,145.00,38.00,
"CA006151064","1952-01-23",23.00,10.04,,,
"CA006151064","1952-01-24",30.02,15.98,,,
"CA006151064","1952-01-25",37.94,,114.00,13.00,
"CA006151064","1952-01-26",42.08,35.06,10.00,0.00,
"CA006151064","1952-01-27",37.04,30.02,,,
"CA006151064","1952-01-28",24.98,12.02,,,
"CA006151064","1952-01-29",14.00,-4.00,,,
"CA006151064","1952-01-30",26.06,3.02,,,
"CA006151064","1952-01-31",42.08,15.08,,,
"CA006151064","1952-02-01",44.06,33.08,8.00,0.00,
"CA006151064","1952-02-02",39.92,33.08,0.00,0.00,
"CA006151064","1952-02-03",41.00,30.02,201.00,0.00,
"CA006151064","1952-02-04",44.06,35.06,8.00,0.00,
"CA006151064","1952-02-05",35.96,33.08,0.00,0.00,
"CA006151064","1952-02-06",33.08,21.92,0.00,0.00,
"CA006151064","1952-02-07",35.06,26.96,0.00,0.00,
"CA006151064","1952-02-08",33.98,24.08,152.00,152.00,
"CA006151064","1952-02-09",33.98,21.02,13.00,13.00,
"CA006151064","1952-02-10",42.98,12.92,0.00,0.00,
"CA006151064","1952-02-11",37.94,26.06,0.00,0.00,
"CA006151064","1952-02-12",24.08,17.96,5.00,5.00,
"CA006151064","1952-02-13",17.96,1.94,0.00,0.00,
"CA006151064","1952-02-14",19.94,-2.02,0.00,0.00,
"CA006151064","1952-02-15",30.92,3.92,0.00,0.00,
"CA006151064","1952-02-16",33.98,19.04,0.00,0.00,
"CA006151064","1952-02-17",33.98,26.96,0.00,0.00,
"CA006151064","1952-02-18",35.06,24.98,0.00,0.00,
"CA006151064","1952-02-19",28.94,14.00,0.00,0.00,
"CA006151064","1952-02-20",30.92,12.02,8.00,8.00,
"CA006151064","1952-02-21",33.98,19.94,0.00,0.00,
"CA006151064","1952-02-22",33.98,17.96,0.00,0.00,
"CA006151064","1952-02-23",35.96,21.02,0.00,0.00,
"CA006151064","1952-02-24",35.96,17.06,0.00,0.00,
"CA006151064","1952-02-25",33.98,19.04,0.00,0.00,
"CA006151064","1952-02-26",39.92,17.96,0.00,0.00,
"CA006151064","1952-02-27",35.96,28.04,0.00,0.00,
"CA006151064","1952-02-28",33.98,19.04,0.00,0.00,
"CA006151064","1952-02-29",37.94,21.02,0.00,0.00,
"CA006151064","1952-03-01",30.92,19.04,0.00,0.00,
"CA006151064","1952-03-02",30.92,17.96,0.00,0.00,
"CA006151064","1952-03-03",37.04,23.00,0.00,0.00,
"CA006151064","1952-03-04",39.92,28.04,25.00,0.00,
"CA006151064","1952-03-05",28.94,26.06,0.00,0.00,
"CA006151064","1952-03-06",32.00,17.96,0.00,0.00,
"CA006151064","1952-03-07",44.06,21.92,0.00,0.00,
"CA006151064","1952-03-08",32.00,23.00,0.00,0.00,
"CA006151064","1952-03-09",35.06,21.02,0.00,0.00,
"CA006151064","1952-03-10",41.00,28.04,335.00,0.00,
"CA006151064","1952-03-11",44.06,37.04,0.00,0.00,
"CA006151064","1952-03-12",41.00,32.00,0.00,0.00,
"CA006151064","1952-03-13",33.08,26.06,25.00,25.00,
"CA006151064","1952-03-14",30.92,19.94,0.00,0.00,
"CA006151064","1952-03-15",33.08,17.96,0.00,0.00,
"CA006151064","1952-03-16",33.08,17.06,0.00,0.00,
"CA006151064","1952-03-17",37.94,24.98,0.00,0.00,
"CA006151064","1952-03-18",39.92,23.00,0.00,0.00,
"CA006151064","1952-03-19",42.98,32.00,41.00,0.00,
"CA006151064","1952-03-20",53.06,37.94,0.00,0.00,
"CA006151064","1952-03-21",51.98,33.08,0.00,0.00,
"CA006151064","1952-03-22",35.96,28.94,203.00,0.00,
"CA006151064","1952-03-23",33.08,30.92,0.00,0.00,
"CA006151064","1952-03-24",35.96,28.04,0.00,0.00,
"CA006151064","1952-03-25",39.92,24.98,0.00,0.00,
"CA006151064","1952-03-26",39.92,26.96,0.00,0.00,
"CA006151064","1952-03-27",41.00,26.06,0.00,0.00,
"CA006151064","1952-03-28",37.94,21.92,0.00,0.00,
"CA006151064","1952-03-29",35.96,24.98,0.00,0.00,
"CA006151064","1952-03-30",44.96,24.98,0.00,0.00,
"CA006151064","1952-03-31",69.08,33.08,51.00,0.00,
"CA006151064","1952-04-01",,46.04,0.00,0.00,
"CA006151064","1952-04-02",,35.06,5.00,0.00,
"CA006151064","1952-04-03",,33.08,38.00,0.00,
"CA006151064","1952-04-04",,28.04,254.00,0.00,
"CA006151064","1952-04-05",,33.98,23.00,0.00,
"CA006151064","1952-04-06",,35.96,3.00,0.00,
"CA006151064","1952-04-07",,33.98,0.00,0.00,
"CA006151064","1952-04-08",,35.06,0.00,0.00,
"CA006151064","1952-04-09",,28.94,0.00,0.00,
"CA006151064","1952-04-10",,35.06,0.00,0.00,
"CA006151064","1952-04-11",,30.02,0.00,0.00,
"CA006151064","1952-04-12",,28.94,99.00,0.00,
"CA006151064","1952-04-13",,33.98,221.00,0.00,
"CA006151064","1952-04-14",,35.06,43.00,0.00,
"CA006151064","1952-04-15",,37.04,0.00,0.00,
"CA006151064","1952-04-16",,37.04,0.00,0.00,
"CA006151064","1952-04-17",,42.98,0.00,0.00,
"CA006151064","1952-04-18",,51.08,0.00,0.00,
"CA006151064","1952-04-19",,51.98,0.00,0.00,
"CA006151064","1952-04-20",,51.98,0.00,0.00,
"CA006151064","1952-04-21",,42.08,0.00,0.00,
"CA006151064","1952-04-22",75.92,42.98,0.00,0.00,
"CA006151064","1952-04-23",53.06,42.98,25.00,0.00,
"CA006151064","1952-04-24",62.96,30.92,0.00,0.00,
"CA006151064","1952-04-25",59.00,39.02,0.00,0.00,
"CA006151064","1952-04-26",62.96,37.04,0.00,0.00,
"CA006151064","1952-04-27",71.06,35.96,0.00,0.00,
"CA006151064","1952-04-28",66.92,39.92,0.00,0.00,
"CA006151064","1952-04-29",73.04,44.06,0.00,0.00,
"CA006151064","1952-04-30",69.08,50.00,0.00,0.00,
"CA006151064","1952-05-01",59.00,32.00,5.00,0.00,
"CA006151064","1952-05-02",62.06,33.08,0.00,0.00,
"CA006151064","1952-05-03",64.94,37.94,0.00,0.00,
"CA006151064","1952-05-04",69.98,41.00,0.00,0.00,
"CA006151064","1952-05-05",69.98,41.00,13.00,0.00,
"CA006151064","1952-05-06",68.00,42.08,0.00,0.00,
"CA006151064","1952-05-07",64.04,39.02,0.00,0.00,
"CA006151064","1952-05-08",57.92,39.02,0.00,0.00,
"CA006151064","1952-05-09",66.92,33.98,30.00,0.00,
"CA006151064","1952-05-10",57.02,46.94,0.00,0.00,
"CA006151064","1952-05-11",71.06,46.94,20.00,0.00,
"CA006151064","1952-05-12",64.04,46.04,53.00,0.00,
"CA006151064","1952-05-13",57.02,42.08,0.00,0.00,
"CA006151064","1952-05-14",71.06,39.92,0.00,0.00,
"CA006151064","1952-05-15",64.94,41.00,157.00,0.00,
"CA006151064","1952-05-16",62.06,35.06,0.00,0.00,
"CA006151064","1952-05-17",60.08,35.96,0.00,0.00,
"CA006151064","1952-05-18",64.04,37.94,0.00,0.00,
"CA006151064","1952-05-19",66.02,42.98,0.00,0.00,
"CA006151064","1952-05-20",57.02,46.04,163.00,0.00,
"CA006151064","1952-05-21",62.96,46.04,0.00,0.00,
"CA006151064","1952-05-22",78.08,53.96,0.00,0.00,
"CA006151064","1952-05-23",66.02,53.06,0.00,0.00,
"CA006151064","1952-05-24",55.94,46.94,439.00,0.00,
"CA006151064","1952-05-25",71.96,48.92,0.00,0.00,
"CA006151064","1952-05-26",75.92,53.06,0.00,0.00,
"CA006151064","1952-05-27",73.94,53.96,0.00,0.00,
"CA006151064","1952-05-28",73.94,46.94,0.00,0.00,
"CA006151064","1952-05-29",64.04,46.04,0.00,0.00,
"CA006151064","1952-05-30",66.92,39.02,0.00,0.00,
"CA006151064","1952-05-31",66.92,44.96,51.00,0.00,
"CA006151064","1952-06-01",73.04,53.06,0.00,0.00,
"CA006151064","1952-06-02",73.94,44.06,0.00,0.00,
"CA006151064","1952-06-03",77.00,51.98,30.00,0.00,
"CA006151064","1952-06-04",71.06,51.08,0.00,0.00,
"CA006151064","1952-06-05",77.00,48.02,0.00,0.00,
"CA006151064","1952-06-06",89.06,57.02,0.00,0.00,
"CA006151064","1952-06-07",69.08,59.00,0.00,0.00,
"CA006151064","1952-06-08",87.98,44.96,23.00,0.00,
"CA006151064","1952-06-09",84.02,66.02,0.00,0.00,
"CA006151064","1952-06-10",78.08,57.02,0.00,0.00,
"CA006151064","1952-06-11",66.02,48.92,0.00,0.00,
"CA006151064","1952-06-12",73.94,66.02,0.00,0.00,
"CA006151064","1952-06-13",77.00,62.96,0.00,0.00,
"CA006151064","1952-06-14",84.92,57.02,0.00,0.00,
"CA006151064","1952-06-15",84.92,62.06,0.00,0.00,
"CA006151064","1952-06-16",82.04,60.98,0.00,0.00,
"CA006151064","1952-06-17",84.02,57.92,0.00,0.00,
"CA006151064","1952-06-18",84.02,60.08,13.00,0.00,
"CA006151064","1952-06-19",82.04,55.04,0.00,0.00,
"CA006151064","1952-06-20",,,13.00,0.00,
"CA006151064","1952-06-21",68.00,57.02,122.00,0.00,
"CA006151064","1952-06-22",69.98,55.94,0.00,0.00,
"CA006151064","1952-06-23",73.94,57.92,0.00,0.00,
"CA006151064","1952-06-24",96.08,59.00,20.00,0.00,
"CA006151064","1952-06-25",98.96,64.04,0.00,0.00,
"CA006151064","1952-06-26",96.08,75.92,0.00,0.00,
"CA006151064","1952-06-27",75.92,62.06,0.00,0.00,
"CA006151064","1952-06-28",78.08,62.06,86.00,0.00,
"CA006151064","1952-06-29",75.92,60.98,0.00,0.00,
"CA006151064","1952-06-30",77.00,64.04,0.00,0.00,
"CA006151064","1952-07-01",80.06,60.08,0.00,0.00,
"CA006151064","1952-07-02",87.08,57.92,127.00,0.00,
"CA006151064","1952-07-03",91.94,68.00,41.00,0.00,
"CA006151064","1952-07-04",84.92,71.06,0.00,0.00,
"CA006151064","1952-07-05",84.92,60.08,0.00,0.00,
"CA006151064","1952-07-06",87.98,60.98,0.00,0.00,
"CA006151064","1952-07-07",91.04,62.06,0.00,0.00,
"CA006151064","1952-07-08",91.94,71.06,33.00,0.00,
"CA006151064","1952-07-09",75.02,64.04,0.00,0.00,
"CA006151064","1952-07-10",78.98,55.04,0.00,0.00,
"CA006151064","1952-07-11",,57.02,0.00,0.00,
"CA006151064","1952-07-12",93.02,64.94,0.00,0.00,
"CA006151064","1952-07-13",96.98,64.94,0.00,0.00,
"CA006151064","1952-07-14",96.08,69.08,0.00,0.00,
"CA006151064","1952-07-15",93.02,73.04,0.00,0.00,
"CA006151064","1952-07-16",84.92,62.06,0.00,0.00,
"CA006151064","1952-07-17",91.04,62.06,0.00,0.00,
"CA006151064","1952-07-18",89.96,71.06,43.00,0.00,
"CA006151064","1952-07-19",87.98,73.94,0.00,0.00,
"CA006151064","1952-07-20",86.00,69.98,74.00,0.00,
"CA006151064","1952-07-21",95.00,71.96,0.00,0.00,
"CA006151064","1952-07-22",95.00,69.08,0.00,0.00,
"CA006151064","1952-07-23",91.94,66.92,3.00,0.00,
"CA006151064","1952-07-24",80.06,57.92,0.00,0.00,
"CA006151064","1952-07-25",84.02,53.06,0.00,0.00,
"CA006151064","1952-07-26",96.98,62.96,0.00,0.00,
"CA006151064","1952-07-27",91.04,62.96,0.00,0.00,
"CA006151064","1952-07-28",87.98,68.00,3.00,0.00,
"CA006151064","1952-07-29",71.96,57.92,0.00,0.00,
"CA006151064","1952-07-30",86.00,50.00,0.00,0.00,